Change the Weather History Date:

Saturday, March 15, 2014

  Actual Average (KWRI) Record (KWRI)
Temperature  
Mean Temperature 52 °F -  
Max Temperature 61 °F 48 °F 73 °F (2002)
Min Temperature 45 °F 29 °F 24 °F (1998)
Degree Days  
Heating Degree Days 12    
Growing Degree Days 2 (Base 50)    
Moisture  
Dew Point 25 °F    
Average Humidity 36    
Maximum Humidity 47    
Minimum Humidity 23    
Precipitation  
Precipitation 0.00 in - - ()
Sea Level Pressure  
Sea Level Pressure 29.88 in    
Wind  
Wind Speed 10 mph (West)    
Max Wind Speed 21 mph    
Max Gust Speed 32 mph    
Visibility 10 miles    
Events Rain    
Averages and records for this station are not official NWS values.
T = Trace of Precipitation, MM = Missing Value Source: NWS Daily Summary

Daily Weather History Graph

Daily Weather History Graph

Search for Another Location

Airport or City:

Trip Planner

Search our weather history database for the weather conditions in past years. The results will help you decide how hot, cold, wet, or windy it might be!

Date:

Astronomy

Mar. 15, 2014 Rise Set
Actual Time 7:10 AM EDT 7:06 PM EDT
Civil Twilight 6:43 AM EDT 7:33 PM EDT
Nautical Twilight 6:12 AM EDT 8:04 PM EDT
Astronomical Twilight 5:40 AM EDT 8:36 PM EDT
Moon 6:23 PM EDT (3/15) 6:21 AM EDT (3/15)
Length of Visible Light 12h 49m
Length of Day
11h 55m
Waxing Gibbous, 99% of the Moon is Illuminated
Mar 15
Waxing Gibbous
Mar 16
Full
Mar 23
Last Quarter
Mar 30
New
Apr 7
First Quarter

Hourly Weather History & Observations

Time (EDT) Temp. Windchill Dew Point Humidity Pressure Visibility Wind Dir Wind Speed Gust Speed Precip Events Conditions
12:54 AM 45.0 °F 41.2 °F 25.0 °F 46% 29.89 in 10.0 mi SSW 6.9 mph - N/A   Clear
1:54 AM 46.0 °F 42.5 °F 26.1 °F 46% 29.87 in 10.0 mi Variable 6.9 mph - N/A   Clear
2:54 AM 46.0 °F 43.1 °F 27.0 °F 47% 29.85 in 10.0 mi South 5.8 mph - N/A   Overcast
4:54 AM 48.0 °F - 26.1 °F 42% 29.80 in 10.0 mi SSW 11.5 mph 19.6 mph N/A   Overcast
5:54 AM 48.9 °F - 26.1 °F 41% 29.81 in 10.0 mi SSW 8.1 mph - N/A   Overcast
6:54 AM 48.0 °F - 26.1 °F 42% 29.81 in 10.0 mi SSW 9.2 mph - N/A   Clear
7:54 AM 48.9 °F - 27.0 °F 43% 29.82 in 10.0 mi SW 8.1 mph - N/A   Overcast
8:54 AM 50.0 °F - 27.0 °F 41% 29.84 in 10.0 mi WSW 11.5 mph - 0.00 in Rain Light Rain
9:54 AM 52.0 °F - 27.0 °F 38% 29.84 in 10.0 mi WSW 11.5 mph 16.1 mph 0.00 in   Overcast
10:54 AM 55.0 °F - 28.0 °F 35% 29.84 in 10.0 mi WSW 16.1 mph 23.0 mph N/A   Mostly Cloudy
11:54 AM 57.9 °F - 28.9 °F 33% 29.84 in 10.0 mi WSW 17.3 mph 27.6 mph N/A   Partly Cloudy
12:54 PM 59.0 °F - 28.0 °F 31% 29.84 in 10.0 mi WSW 19.6 mph 29.9 mph N/A   Scattered Clouds
1:54 PM 57.9 °F - 28.9 °F 33% 29.83 in 10.0 mi West 10.4 mph 23.0 mph N/A   Mostly Cloudy
2:54 PM 60.1 °F - 27.0 °F 28% 29.82 in 10.0 mi West 16.1 mph 32.2 mph N/A   Clear
3:54 PM 60.1 °F - 25.0 °F 26% 29.83 in 10.0 mi West 12.7 mph 25.3 mph N/A   Scattered Clouds
4:54 PM 60.1 °F - 21.9 °F 23% 29.85 in 10.0 mi West 20.7 mph 32.2 mph N/A   Clear
5:54 PM 57.9 °F - 21.9 °F 25% 29.87 in 10.0 mi WNW 11.5 mph 21.9 mph N/A   Clear
6:54 PM 55.9 °F - 23.0 °F 28% 29.91 in 10.0 mi WNW 9.2 mph - N/A   Clear
7:54 PM 53.1 °F - 21.9 °F 30% 29.95 in 10.0 mi NW 6.9 mph - N/A   Clear
8:54 PM 51.1 °F - 21.9 °F 32% 29.98 in 10.0 mi NW 8.1 mph - N/A   Clear
9:54 PM 48.9 °F - 21.9 °F 35% 30.01 in 10.0 mi NW 11.5 mph - N/A   Clear
10:54 PM 48.0 °F - 21.9 °F 36% 30.02 in 10.0 mi NW 6.9 mph - N/A   Clear
11:54 PM 45.0 °F 41.8 °F 21.9 °F 40% 30.03 in 10.0 mi NW 5.8 mph - N/A   Clear